CW4525 Weather Reports


Display with metric or nautical units.
time (UTC)temp
F
wind
direction
speed
MPH
gust
MPH
rain 1hr
in
rain 24hr
in
rain mn
in
humidity
%
barometer
mb
20260906131506 58 287 1.0 7.0 0.00 0.33 0.15 95 1011.9
20260906130004 58 241 2.0 7.0 0.00 0.33 0.15 95 1011.7
20260906124502 57 298 1.0 6.0 0.00 0.33 0.15 95 1011.9
20260906123100 57 333 2.0 6.0 0.00 0.33 0.15 95 1011.9
20260906123002 57 333 2.0 6.0 0.00 0.33 0.15 95 1011.9
20260906121601 57 318 2.0 5.0 0.00 0.33 0.15 95 1011.9
20260906120059 57 324 1.0 6.0 0.00 0.33 0.15 95 1011.9
20260906114557 57 323 0.0 4.0 0.00 0.33 0.15 95 1011.8
20260906113055 56 325 3.0 6.0 0.00 0.33 0.15 95 1011.7
20260906111609 56 329 0.0 4.0 0.00 0.33 0.15 95 1011.4
20260906110050 56 329 0.0 1.0 0.00 0.33 0.15 95 1011.2
20260906104551 56 330 0.0 2.0 0.00 0.33 0.15 95 1010.9
20260906103047 56 330 0.0 0.0 0.00 0.33 0.15 95 1010.8
20260906101546 56 330 0.0 0.0 0.00 0.33 0.15 95 1010.8
20260906100051 56 330 0.0 2.0 0.01 0.33 0.15 95 1010.8
20260906094547 56 330 0.0 0.0 0.01 0.33 0.15 94 1010.6
20260906093042 56 330 0.0 0.0 0.01 0.33 0.15 95 1010.3
20260906091544 57 329 0.0 2.0 0.01 0.33 0.15 95 1010.3
20260906090039 57 329 0.0 0.0 0.06 0.32 0.14 94 1010.3
20260906084538 57 345 0.0 0.0 0.12 0.32 0.14 94 1010.3
20260906083037 57 345 0.0 0.0 0.14 0.32 0.14 95 1010.2
20260906081537 57 345 0.0 0.0 0.13 0.31 0.13 95 1010.2
20260906080035 58 328 1.0 5.0 0.08 0.26 0.08 94 1010.3
20260906074532 58 55 1.0 10.0 0.02 0.20 0.02 95 1009.9
20260906073032 58 327 2.0 5.0 0.00 0.18 0.00 95 1009.9
20260906071531 59 304 1.0 4.0 0.00 0.18 0.00 95 1009.8
20260906070029 58 303 0.0 0.0 0.00 0.18 0.00 95 1009.7
20260906064528 59 304 0.0 0.0 0.00 0.18 0.00 95 1009.7
20260906063028 59 303 0.0 0.0 0.00 0.18 0.00 95 1009.7
20260906061527 59 303 0.0 0.0 0.00 0.18 0.00 94 1009.6
20260906060027 59 303 0.0 0.0 0.00 0.18 0.00 94 1009.7
20260906054539 59 303 0.0 0.0 0.00 0.18 0.00 94 1009.7
20260906053024 59 303 0.0 0.0 0.00 0.18 0.00 94 1009.7
20260906051523 59 303 0.0 2.0 0.00 0.18 0.00 94 1009.8
20260906050022 59 305 1.0 4.0 0.00 0.18 0.00 94 1009.8
20260906044521 59 306 0.0 4.0 0.00 0.18 0.00 94 1009.9
20260906043022 59 307 0.0 0.0 0.01 0.18 0.00 94 1009.7
20260906041524 59 307 0.0 0.0 0.01 0.18 0.00 94 1009.7
20260906040032 59 307 0.0 0.0 0.01 0.18 0.18 94 1009.7
20260906034519 60 307 0.0 0.0 0.01 0.18 0.18 94 1009.7
20260906033034 60 307 0.0 0.0 0.01 0.17 0.17 94 1009.7
20260906031517 60 307 0.0 0.0 0.01 0.17 0.17 94 1009.6
20260906030016 60 307 0.0 0.0 0.01 0.17 0.17 93 1009.4
20260906024515 60 307 0.0 2.0 0.03 0.17 0.17 93 1009.4
20260906023015 60 307 0.0 5.0 0.02 0.16 0.16 93 1009.6
20260906021515 60 317 1.0 3.0 0.02 0.16 0.16 93 1009.5
20260906020014 61 317 0.0 6.0 0.02 0.16 0.16 93 1009.6
20260906014513 61 332 1.0 6.0 0.00 0.14 0.14 92 1009.6
20260906013012 61 323 1.0 4.0 0.00 0.14 0.14 92 1009.6
20260906011515 61 336 0.0 5.0 0.01 0.14 0.14 92 1009.5
20260906010016 62 346 1.0 5.0 0.01 0.14 0.14 92 1009.5
20260906004510 62 30 0.0 1.0 0.01 0.14 0.14 92 1009.1
20260906003009 62 30 0.0 1.0 0.01 0.14 0.14 92 1009.0
20260906001509 63 30 0.0 2.0 0.00 0.13 0.13 91 1009.1
20260906000008 63 30 0.0 1.0 0.04 0.13 0.13 91 1008.9
20260905234507 63 30 0.0 4.0 0.13 0.13 0.13 90 1008.7
20260905233006 63 46 0.0 0.0 0.13 0.13 0.13 89 1008.5
20260905231506 64 29 0.0 2.0 0.13 0.13 0.13 88 1008.5
20260905230005 65 29 2.0 6.0 0.07 0.07 0.07 85 1008.5
20260905224507 65 144 1.0 5.0 0.00 0.00 0.00 84 1008.1
20260905223004 65 138 0.0 4.0 0.00 0.00 0.00 83 1008.0
20260905221505 65 117 0.0 5.0 0.00 0.00 0.00 83 1008.0
20260905220003 66 143 1.0 6.0 0.00 0.00 0.00 82 1008.0
20260905214501 66 117 1.0 8.0 0.00 0.00 0.00 80 1007.8
20260905213001 67 96 0.0 6.0 0.00 0.00 0.00 80 1007.5
20260905211601 68 125 0.0 9.0 0.00 0.00 0.00 78 1007.3
20260905210105 69 202 1.0 10.0 0.00 0.00 0.00 76 1007.1
20260905204558 71 155 4.0 9.0 0.00 0.00 0.00 71 1006.9
20260905203100 73 227 4.0 9.0 0.00 0.00 0.00 65 1006.7
20260905201557 73 302 6.0 9.0 0.00 0.00 0.00 64 1006.5
20260905200058 72 32 6.0 11.0 0.00 0.00 0.00 64 1006.4
20260905194555 72 329 3.0 7.0 0.00 0.00 0.00 66 1006.4
20260905193055 72 338 2.0 6.0 0.00 0.00 0.00 69 1006.4
20260905191602 73 327 3.0 8.0 0.00 0.00 0.00 65 1006.3
20260905190057 74 347 0.0 7.0 0.00 0.00 0.00 63 1006.3
20260905184600 74 10 4.0 7.0 0.00 0.00 0.00 62 1006.3
20260905183052 73 5 4.0 9.0 0.00 0.00 0.00 65 1006.3
20260905181552 74 350 6.0 14.0 0.00 0.00 0.00 63 1006.3
20260905180100 73 30 2.0 7.0 0.00 0.00 0.00 65 1006.3
20260905174550 74 281 4.0 11.0 0.00 0.00 0.00 66 1006.3
20260905173106 74 304 3.0 10.0 0.00 0.00 0.00 65 1006.3
20260905171547 74 294 3.0 7.0 0.00 0.00 0.00 69 1006.2
20260905170053 72 18 3.0 10.0 0.00 0.00 0.00 69 1006.3
20260905164537 71 44 4.0 7.0 0.00 0.00 0.00 74 1006.3
20260905163036 70 302 3.0 8.0 0.00 0.00 0.00 79 1006.3
20260905161546 68 327 2.0 5.0 0.00 0.00 0.00 81 1006.3
20260905160035 68 328 3.0 8.0 0.00 0.00 0.00 79 1006.5
20260905154533 70 306 4.0 8.0 0.00 0.00 0.00 74 1006.4
20260905153033 71 348 4.0 8.0 0.00 0.00 0.00 72 1006.3
20260905151532 70 16 3.0 7.0 0.00 0.00 0.00 74 1006.3
20260905150025 69 10 0.0 7.0 0.00 0.00 0.00 77 1006.3
20260905144526 68 348 5.0 9.0 0.00 0.00 0.00 77 1006.3
20260905143023 68 349 4.0 10.0 0.00 0.00 0.00 79 1006.4
20260905141520 67 325 2.0 8.0 0.00 0.00 0.00 82 1006.4
20260905140016 67 321 4.0 8.0 0.00 0.00 0.00 83 1006.4
20260905134512 65 326 5.0 9.0 0.00 0.00 0.00 84 1006.3
20260905133009 65 315 4.0 10.0 0.00 0.00 0.00 86 1006.2